{"data":{"norad_id":51462,"epoch":"2026-09-20T03:45:47.896704Z","epoch_age_seconds":78053,"freshness":"FRESH","line1":"1 51462U 22010G   26263.15680436  .00000600  00000+0  31098-4 0  9995","line2":"2 51462  53.1592 110.4921 0001282  94.2237 265.8911 15.31701120256391","mean_motion":15.3170112,"eccentricity":0.0001282,"inclination_deg":53.1592,"raan_deg":110.4921,"arg_perigee_deg":94.2237,"mean_anomaly_deg":265.8911,"bstar":3.1098e-5,"rev_number":25639,"period_min":94.01311921741,"perigee_km":469.85863096319,"apogee_km":471.61468216873,"semimajor_km":6848.873656566,"source":"CELESTRAK","updated_at":"2026-09-20T09:00:39.594104Z"}}